TimeMDT,TemperatureF,Dew PointF,Humidity,Sea Level PressureIn,VisibilityMPH,Wind Direction,Wind SpeedMPH,Gust SpeedMPH,PrecipitationIn,Events,Conditions,WindDirDegrees,DateUTC
12:56 AM,64.0,48.0,56,29.94,10.0,SE,10.4,-,N/A,,Clear,130,2013-07-27 06:56:00
1:56 AM,63.0,48.0,58,29.92,10.0,ESE,13.8,-,N/A,,Clear,110,2013-07-27 07:56:00
2:56 AM,60.1,48.0,64,29.91,10.0,SE,6.9,-,N/A,,Clear,140,2013-07-27 08:56:00
3:56 AM,54.0,46.9,77,29.91,10.0,ESE,4.6,-,N/A,,Clear,120,2013-07-27 09:56:00
4:56 AM,51.1,46.0,83,29.91,10.0,NE,3.5,-,N/A,,Clear,40,2013-07-27 10:56:00
5:56 AM,48.9,45.0,86,29.92,10.0,NE,4.6,-,N/A,,Clear,40,2013-07-27 11:56:00
6:56 AM,52.0,46.0,80,29.91,10.0,Calm,Calm,-,N/A,,Clear,0,2013-07-27 12:56:00
7:56 AM,57.9,48.0,70,29.91,10.0,Calm,Calm,-,N/A,,Clear,0,2013-07-27 13:56:00
8:56 AM,62.1,48.9,62,29.90,10.0,Calm,Calm,-,N/A,,Clear,0,2013-07-27 14:56:00
9:56 AM,71.1,48.0,44,29.87,10.0,South,4.6,-,N/A,,Clear,180,2013-07-27 15:56:00
10:56 AM,82.9,28.0,14,29.83,10.0,WSW,11.5,20.7,N/A,,Clear,240,2013-07-27 16:56:00
11:56 AM,84.9,24.1,11,29.82,10.0,WSW,16.1,26.5,N/A,,Clear,250,2013-07-27 17:56:00
12:56 PM,87.1,28.9,12,29.80,10.0,SSW,11.5,21.9,N/A,,Clear,210,2013-07-27 18:56:00
1:56 PM,86.0,25.0,11,29.79,10.0,WSW,17.3,24.2,N/A,,Clear,250,2013-07-27 19:56:00
2:56 PM,82.0,55.9,41,29.82,10.0,North,18.4,-,N/A,,Clear,10,2013-07-27 20:56:00
3:56 PM,79.0,55.0,44,29.83,10.0,NE,16.1,-,N/A,,Clear,50,2013-07-27 21:56:00
4:56 PM,80.1,54.0,40,29.82,10.0,NE,18.4,27.6,N/A,,Clear,40,2013-07-27 22:56:00
5:56 PM,77.0,55.9,48,29.85,10.0,NE,21.9,28.8,N/A,,Clear,40,2013-07-27 23:56:00
6:56 PM,73.9,55.0,52,29.87,10.0,NNE,19.6,28.8,N/A,,Clear,30,2013-07-28 00:56:00
7:56 PM,68.0,54.0,61,29.89,10.0,North,17.3,-,N/A,,Clear,10,2013-07-28 01:56:00
8:56 PM,64.0,53.1,67,29.91,10.0,NNE,13.8,-,N/A,,Clear,20,2013-07-28 02:56:00
9:56 PM,61.0,52.0,72,29.91,10.0,North,11.5,-,N/A,,Clear,10,2013-07-28 03:56:00
10:56 PM,59.0,52.0,78,29.89,10.0,North,11.5,-,N/A,,Clear,360,2013-07-28 04:56:00
11:56 PM,57.9,51.1,78,29.89,10.0,North,13.8,-,N/A,,Partly Cloudy,360,2013-07-28 05:56:00